Location: Hamburg
(53.5511°N, 9.9937°E)
Time: 20:50:43
(UTC+01:00)

ISS - Visible Passes

Search period start: 25 February 2021 00:00
Search period end: 07 March 2021 00:00
Orbit: 417 x 422 km, 51.6° (Epoch: 26 February)

Date Brightness Start Highest point End Pass type
(mag) Time Alt. Az. Time Alt. Az. Time Alt. Az.
25 Feb -1.4 04:50:14 17° SSE 04:50:30 17° SE 04:52:45 10° ESE visible
25 Feb -2.9 06:23:32 10° WSW 06:26:47 47° SSE 06:30:02 10° E visible
26 Feb -2.7 05:37:43 22° SW 05:39:24 38° SSE 05:42:34 10° E visible
27 Feb -2.3 04:52:10 30° SSE 04:52:10 30° SSE 04:55:03 10° E visible
27 Feb -3.4 06:25:14 10° WSW 06:28:34 61° S 06:31:54 10° E visible
28 Feb -0.9 04:06:33 15° ESE 04:06:33 15° ESE 04:07:27 10° E visible
28 Feb -3.4 05:39:31 26° WSW 05:41:09 55° S 05:44:27 10° E visible
01 Mar -3.1 04:53:52 46° SSE 04:53:52 46° SSE 04:56:59 10° E visible
01 Mar -3.5 06:27:01 10° W 06:30:21 62° S 06:33:41 10° ESE visible
02 Mar -1.3 04:08:11 20° ESE 04:08:11 20° ESE 04:09:29 10° E visible
02 Mar -3.6 05:41:08 25° WSW 05:42:54 64° S 05:46:15 10° E visible
03 Mar -3.6 04:55:25 61° S 04:55:26 61° S 04:58:46 10° E visible
04 Mar -1.6 04:09:42 24° E 04:09:42 24° E 04:11:17 10° E visible
04 Mar -3.5 05:42:40 22° W 05:44:37 57° S 05:47:55 10° ESE visible
05 Mar -3.7 04:56:57 61° SSW 04:57:08 62° S 05:00:28 10° ESE visible
06 Mar -1.8 04:11:15 27° ESE 04:11:15 27° ESE 04:12:58 10° E visible
06 Mar -3.1 05:44:12 19° W 05:46:13 41° SSW 05:49:25 10° SE visible
